Location: Cerezo de Arriba
(41.2389°N, 3.5585°W)
Time: 03:56:47
(UTC+00:00)

Cosmos 1315 Rocket - Pass Details

Date: 19 May 2025
Orbit: 498 x 525 km, 81.2° (Epoch: 23 June)

Event Time Altitude Azimuth Distance (km) Brightness Sun altitude
Exits shadow 22:31:16 36° 267° (W) 844 3.9 -24.6°
Maximum altitude 22:31:43 37° 284° (WNW) 823 3.9 -24.6°
Drops below altitude 10° 22:35:22 10° 353° (N) 1,772 6.3 -24.9°
Sets 22:37:38 0° 2° (N) 2,663 7.3 -25.1°
